Flag for France Weather past 2 weeks in Auxerre, France

36 °F

Low clouds.

Feels Like: 29 °F
Forecast: 37 / 45 °F
Wind: 8 mph from Southeast

Location: Troyes Airport

Current Time: Nov 27, 2015 at 10:38:00 PM

Latest Report: Nov 27, 2015 at 10:00 PM

Visibility: 6 mi

Pressure: 29.95 "Hg

Humidity: 93%

Dew point: 34 °F

Location of AuxerreLocation

Historic Weather in Auxerre — Graph


Auxerre temperature yesterday

Maximum temperature yesterday: 45 °F (at 3:30 PM)
Minimum temperature yesterday: 30 °F (at 10:30 PM)
Average temperature yesterday: 38 °F

Past Weeks' High & Low Weather Summary

High61 °F (Nov 15, 1:30 PM)100% (Nov 12, 10:30 PM)30.51 "Hg (Nov 12, 10:30 PM)
Low28 °F (Nov 24, 2:30 AM)63% (Nov 14, 1:00 PM)29.53 "Hg (Nov 21, 5:30 AM)
Average46 °F88%30.07 "Hg
* Reported Nov 12 9:00 PM — Nov 27 9:00 PM, Auxerre, Weather by CustomWeather, © 2015

Note: Actual official high and low records may vary slightly from our data, if they occured in-between our weather recording intervals... More about our weather records


Auxerre weather history for previous 24 hours

Time TempWeatherWind HumidityBarometerVisibility
9:00 PM
Fri, Nov 27
34 °FPassing clouds.13 mph100%29.98 "Hg4 mi
8:30 PM34 °FPassing clouds.12 mph100%29.98 "Hg5 mi
8:00 PM36 °FLow clouds.8 mph93%29.98 "Hg5 mi
7:30 PM36 °FPassing clouds.12 mph93%30.01 "Hg4 mi
7:00 PM36 °FPassing clouds.10 mph93%30.01 "Hg5 mi
6:30 PM36 °FLow clouds.9 mph93%30.01 "Hg5 mi
6:00 PM36 °FLow clouds.10 mph100%30.01 "Hg4 mi
5:30 PM36 °FFog.12 mph93%30.01 "Hg3 mi
5:00 PM36 °FFog.8 mph93%30.01 "Hg3 mi
4:30 PM36 °FLow clouds.9 mph100%30.04 "Hg5 mi
4:00 PM36 °FLow clouds.8 mph100%30.04 "Hg4 mi
3:30 PM37 °FLow clouds.7 mph93%30.04 "Hg5 mi
3:00 PM37 °FLow clouds.6 mph100%30.04 "Hg5 mi
2:30 PM37 °FLow clouds.5 mph100%30.04 "Hg6 mi
2:00 PM36 °FLow clouds.5 mph100%30.07 "HgN/A
1:30 PM36 °FLow clouds.3 mph100%30.07 "HgN/A
1:00 PM36 °FLow clouds.2 mph100%30.09 "Hg6 mi
12:30 PM34 °FFog.3 mph100%30.09 "Hg3 mi
12:00 PM34 °FFog.3 mph100%30.12 "Hg1 mi
11:30 AM34 °FFog.3 mph100%30.12 "Hg1 mi
11:00 AM34 °FFog.6 mph100%30.12 "Hg1 mi
10:30 AM34 °FFog.7 mph100%30.12 "Hg1 mi
10:00 AM32 °FFog.7 mph100%30.12 "Hg0 mi
9:30 AM34 °FFog.5 mph100%30.15 "Hg0 mi
9:00 AM34 °FFog.3 mph100%30.15 "Hg0 mi
7:30 AM34 °FFog.2 mph100%30.15 "Hg1 mi
7:00 AM34 °FFog.2 mph100%30.15 "Hg1 mi
6:30 AM34 °FFog.3 mph100%30.15 "Hg1 mi
6:00 AM34 °FFog.3 mph100%30.15 "Hg1 mi
5:00 AM34 °FFog.2 mph100%30.15 "Hg1 mi
4:30 AM34 °FFog.3 mph100%30.15 "Hg1 mi
4:00 AM34 °FFog.3 mph100%30.18 "Hg1 mi
3:30 AM36 °FFog.3 mph100%30.18 "Hg1 mi
3:00 AM36 °FFog.2 mph100%30.18 "Hg0 mi
2:30 AM36 °FFog.3 mph100%30.18 "Hg0 mi
2:00 AM36 °FFog.2 mph100%30.18 "Hg0 mi
1:30 AM36 °FFog.3 mph100%30.18 "Hg0 mi
1:00 AM34 °FFog.No wind100%30.18 "Hg1 mi
12:30 AM32 °FIce fog.No wind100%30.18 "Hg2 mi
11:30 PM
Thu, Nov 26
30 °FIce fog.5 mph100%30.18 "Hg1 mi
11:00 PM30 °FIce fog.No wind100%30.18 "Hg1 mi
10:30 PM30 °FIce fog.No wind100%30.18 "Hg1 mi
10:00 PM32 °FIce fog.No wind93%30.18 "Hg2 mi
Weather by CustomWeather, © 2015

See weather overviewHow to use our weather pages